sat.trackr.live / text

‹ back to catalog

STARLINK-6215

NORAD 57367 · 2023-099AR

PAYLOAD ACTIVE UNKNOWN

§ Identity

Operator
Country
US
Launch date
2023-07-16
Launch site
AFETR
Launch vehicle
Mass (kg)
RCS (m²)

Purposes: comms

External: N2YO · Heavens-Above · Gunter

§ Orbital elements

Epoch: 2026-09-20T00:16:30.963072Z

Period
94.27 min
Inclination
43.0018°
Eccentricity
0.0000786
Mean motion
15.27575646 rev/d
Perigee alt
482.5 km
Apogee alt
483.6 km
Semi-major
6,861.2 km
B*
1.1082e-5
RAAN
205.6555°
Arg perigee
246.0233°
Mean anomaly
114.0537°
Rev number
17,688

§ Raw data

STARLINK-62151 57367U 23099AR  26263.01146948  .00000043  00000+0  11082-4 0  99952 57367  43.0018 205.6555 0000786 246.0233 114.0537 15.27575646176884

JSON: /api/v1/satellites/57367 · /tle

For live sub-satellite position, see the globe view (requires WebGL).

§ Visibility from observer

Set your observer location to see the next 7 days of passes ≥ 10°. The values pass through the URL so the page stays shareable.

No JS? Fill the form by hand. The geolocation button needs JavaScript.